Total_Precipitation_Accumulation
0.13 0.33 0.50 0.43 0.35 0.29 0.24 0.21 0.17 0.12 0.11 0.09 0.09 0.11 0.12 0.14 0.15 0.14 0.12 0.12 0.11 0.09 0.09 0.09 0.09 0.13 0.20 0.29 0.37 0.54 0.88 1.30 1.48 1.38 1.37 1.46 1.57 1.57 1.48 1.45 1.42 1.46 1.44 1.41
0.08 0.18 0.18 0.14 0.16 0.20 0.23 0.26 0.22 0.15 0.11 0.09 0.07 0.07 0.08 0.09 0.11 0.12 0.12 0.13 0.13 0.10 0.08 0.06 0.08 0.11 0.17 0.32 0.46 0.59 0.85 1.28 1.48 1.60 1.72 1.94 2.14 2.05 1.93 1.90 1.85 1.91 1.89 2.04
0.04 0.06 0.05 0.09 0.16 0.24 0.27 0.29 0.25 0.20 0.12 0.09 0.07 0.06 0.06 0.07 0.08 0.08 0.11 0.13 0.14 0.12 0.11 0.11 0.10 0.14 0.18 0.27 0.39 0.53 0.70 0.99 1.31 1.58 1.87 2.19 2.42 2.41 2.30 2.13 2.10 2.13 2.16 2.29
0.02 0.03 0.04 0.07 0.10 0.14 0.21 0.15 0.11 0.09 0.10 0.09 0.07 0.10 0.08 0.10 0.12 0.12 0.13 0.13 0.15 0.15 0.14 0.16 0.16 0.16 0.18 0.23 0.30 0.42 0.61 0.86 1.10 1.35 1.77 2.23 2.53 2.64 2.56 2.44 2.37 2.32 2.32 2.34
0.00 0.01 0.02 0.04 0.06 0.09 0.10 0.06 0.06 0.07 0.08 0.07 0.06 0.09 0.10 0.11 0.16 0.16 0.16 0.16 0.16 0.16 0.17 0.20 0.20 0.22 0.23 0.21 0.25 0.38 0.54 0.77 1.01 1.24 1.60 2.02 2.30 2.51 2.68 2.50 2.36 2.36 2.33 2.30
0.00 0.00 0.00 0.01 0.02 0.04 0.05 0.06 0.05 0.05 0.07 0.07 0.05 0.11 0.19 0.18 0.16 0.15 0.14 0.15 0.17 0.19 0.24 0.27 0.35 0.39 0.38 0.32 0.35 0.45 0.53 0.67 0.84 0.98 1.21 1.45 1.78 2.03 2.38 2.37 2.29 2.39 2.31 2.12
0.00 0.00 0.00 0.00 0.01 0.02 0.03 0.08 0.12 0.12 0.13 0.11 0.08 0.17 0.29 0.25 0.19 0.18 0.18 0.18 0.20 0.22 0.26 0.34 0.47 0.51 0.52 0.46 0.43 0.45 0.55 0.60 0.66 0.77 0.89 1.04 1.28 1.44 1.79 2.09 2.09 2.00 1.99 1.90
0.00 0.00 0.00 0.00 0.01 0.04 0.04 0.09 0.17 0.19 0.19 0.19 0.19 0.34 0.42 0.31 0.23 0.21 0.19 0.20 0.23 0.27 0.34 0.50 0.65 0.68 0.67 0.60 0.53 0.52 0.60 0.63 0.64 0.69 0.71 0.80 0.94 1.03 1.17 1.33 1.46 1.50 1.51 1.61
0.01 0.01 0.00 0.00 0.01 0.03 0.07 0.10 0.13 0.20 0.18 0.20 0.30 0.46 0.43 0.27 0.25 0.27 0.27 0.28 0.37 0.47 0.55 0.67 0.81 0.83 0.75 0.69 0.61 0.59 0.64 0.72 0.72 0.71 0.72 0.80 0.86 0.87 0.96 0.97 1.07 1.24 1.25 1.24
0.04 0.02 0.01 0.01 0.02 0.03 0.06 0.10 0.17 0.28 0.33 0.31 0.33 0.45 0.47 0.37 0.37 0.37 0.42 0.44 0.55 0.66 0.74 0.82 0.95 0.96 0.83 0.71 0.61 0.59 0.61 0.72 0.90 1.02 0.97 0.90 0.96 1.03 1.24 1.26 1.07 1.04 1.16 1.17
0.17 0.13 0.04 0.04 0.06 0.10 0.14 0.21 0.27 0.35 0.38 0.49 0.58 0.63 0.58 0.57 0.58 0.59 0.62 0.65 0.74 0.86 0.87 0.84 0.91 0.98 0.87 0.68 0.60 0.56 0.56 0.67 0.82 0.86 0.91 0.89 0.91 0.99 1.27 1.48 1.38 1.19 1.14 1.13
0.22 0.28 0.15 0.09 0.13 0.17 0.23 0.34 0.50 0.69 0.66 0.62 0.75 0.79 0.64 0.58 0.62 0.64 0.64 0.63 0.67 0.79 0.80 0.81 0.83 0.80 0.70 0.56 0.49 0.46 0.48 0.59 0.70 0.69 0.74 0.80 0.79 0.87 0.99 1.08 1.08 0.98 0.88 0.85
0.33 0.46 0.38 0.26 0.32 0.32 0.41 0.45 0.51 0.63 0.71 0.72 0.80 0.83 0.61 0.53 0.49 0.52 0.55 0.58 0.60 0.60 0.60 0.59 0.60 0.57 0.55 0.53 0.50 0.45 0.47 0.53 0.60 0.62 0.67 0.74 0.75 0.75 0.75 0.75 0.68 0.69 0.70 0.72
0.33 0.42 0.47 0.47 0.53 0.59 0.59 0.50 0.45 0.60 0.78 0.73 0.74 0.73 0.60 0.53 0.49 0.52 0.53 0.54 0.57 0.50 0.44 0.44 0.46 0.47 0.49 0.49 0.49 0.46 0.43 0.50 0.60 0.74 0.80 0.84 0.84 0.81 0.79 0.76 0.70 0.67 0.67 0.72
0.22 0.25 0.26 0.25 0.27 0.39 0.44 0.38 0.38 0.45 0.51 0.66 0.65 0.64 0.52 0.49 0.53 0.56 0.54 0.49 0.45 0.39 0.34 0.35 0.35 0.38 0.37 0.38 0.40 0.40 0.38 0.44 0.51 0.65 0.76 0.81 0.83 0.83 0.79 0.70 0.66 0.68 0.63 0.60
0.15 0.19 0.18 0.16 0.18 0.25 0.32 0.34 0.35 0.35 0.40 0.50 0.57 0.55 0.43 0.39 0.38 0.38 0.36 0.31 0.29 0.29 0.26 0.24 0.25 0.26 0.26 0.24 0.24 0.26 0.33 0.41 0.47 0.54 0.64 0.79 0.85 0.77 0.72 0.65 0.63 0.64 0.60 0.55
0.13 0.23 0.30 0.25 0.21 0.23 0.48 0.51 0.51 0.52 0.46 0.45 0.40 0.32 0.21 0.20 0.23 0.26 0.26 0.26 0.29 0.25 0.20 0.18 0.19 0.20 0.21 0.22 0.25 0.28 0.34 0.44 0.44 0.48 0.60 0.78 0.79 0.68 0.63 0.68 0.71 0.66 0.62 0.62
0.10 0.22 0.32 0.27 0.29 0.57 0.82 0.61 0.58 0.52 0.31 0.17 0.13 0.12 0.12 0.17 0.17 0.15 0.16 0.19 0.22 0.19 0.15 0.13 0.13 0.13 0.14 0.17 0.21 0.24 0.28 0.32 0.35 0.40 0.49 0.64 0.66 0.64 0.67 0.68 0.66 0.60 0.55 0.52
0.12 0.23 0.33 0.29 0.33 0.60 0.64 0.41 0.33 0.33 0.21 0.07 0.06 0.08 0.10 0.12 0.11 0.09 0.09 0.10 0.11 0.11 0.07 0.06 0.06 0.05 0.05 0.06 0.07 0.10 0.13 0.16 0.20 0.27 0.36 0.45 0.48 0.53 0.55 0.55 0.56 0.52 0.47 0.46
0.25 0.30 0.43 0.44 0.54 0.58 0.31 0.16 0.15 0.22 0.26 0.06 0.03 0.04 0.04 0.06 0.09 0.06 0.04 0.05 0.05 0.05 0.04 0.03 0.02 0.01 0.01 0.01 0.02 0.03 0.06 0.09 0.14 0.20 0.26 0.34 0.37 0.41 0.43 0.48 0.51 0.51 0.47 0.43
0.22 0.30 0.38 0.46 0.65 0.54 0.21 0.11 0.11 0.21 0.27 0.08 0.03 0.02 0.02 0.02 0.04 0.02 0.03 0.04 0.04 0.03 0.03 0.01 0.01 0.00 0.00 0.01 0.01 0.02 0.05 0.07 0.08 0.11 0.16 0.22 0.30 0.37 0.45 0.51 0.52 0.54 0.51 0.46
0.24 0.26 0.28 0.38 0.54 0.49 0.20 0.15 0.18 0.17 0.08 0.03 0.02 0.01 0.01 0.01 0.01 0.01 0.02 0.02 0.03 0.03 0.02 0.01 0.01 0.00 0.00 0.01 0.01 0.01 0.02 0.03 0.04 0.06 0.11 0.18 0.26 0.33 0.41 0.51 0.54 0.53 0.53 0.52
0.27 0.30 0.32 0.43 0.57 0.38 0.23 0.20 0.19 0.12 0.06 0.02 0.01 0.01 0.00 0.00 0.00 0.00 0.01 0.02 0.02 0.03 0.02 0.01 0.01 0.01 0.00 0.01 0.01 0.00 0.00 0.00 0.01 0.02 0.06 0.11 0.15 0.19 0.25 0.32 0.41 0.47 0.51 0.52
0.15 0.17 0.23 0.32 0.32 0.20 0.18 0.16 0.12 0.07 0.04 0.02 0.01 0.00 0.00 0.00 0.00 0.00 0.01 0.01 0.02 0.02 0.01 0.01 0.01 0.01 0.01 0.00 0.00 0.00 0.00 0.00 0.00 0.01 0.03 0.05 0.06 0.07 0.10 0.20 0.28 0.35 0.42 0.47
0.10 0.13 0.18 0.25 0.25 0.15 0.10 0.10 0.07 0.04 0.02 0.01 0.01 0.00 0.00 0.00 0.00 0.00 0.00 0.00 0.01 0.01 0.01 0.01 0.01 0.01 0.00 0.00 0.00 0.00 0.01 0.01 0.01 0.01 0.01 0.02 0.04 0.06 0.08 0.14 0.22 0.27 0.34 0.37
0.07 0.11 0.17 0.24 0.23 0.17 0.08 0.07 0.05 0.03 0.02 0.01 0.01 0.00 0.00 0.00 0.00 0.00 0.00 0.00 0.01 0.01 0.01 0.01 0.01 0.01 0.00 0.00 0.00 0.01 0.03 0.02 0.04 0.06 0.03 0.02 0.03 0.06 0.08 0.11 0.13 0.13 0.16 0.16